RH
11 11 11 11 12 12 10 8 8 8 8 9 10 11 9 8 9 10 12 12 16 30 48 39 66 61 49 46 63 70 83 100 100 100 100 100 100 100 100 99 100 100 100 100 100 83 95
12 12 12 12 14 13 11 10 10 10 8 8 8 10 11 10 8 10 11 13 14 16 21 35 59 74 65 60 73 84 63 67 100 100 100 100 100 100 100 100 100 100 100 100 100 100 82
12 12 13 12 13 14 10 8 8 9 11 10 8 9 11 12 11 8 11 14 14 16 14 22 46 58 65 80 89 89 90 68 70 89 100 100 100 100 100 100 100 100 100 100 100 100 90
12 12 13 12 13 13 10 8 7 6 7 9 10 11 11 11 12 12 9 14 16 16 16 16 21 46 68 84 100 77 99 98 76 78 78 84 100 100 100 100 100 100 100 100 100 100 100
11 12 12 12 13 12 9 7 5 4 5 6 8 10 10 8 8 14 12 11 17 18 22 17 16 23 50 70 100 92 94 100 100 87 83 74 74 77 94 100 100 100 100 100 100 100 100
12 12 12 13 14 11 9 6 4 4 4 5 6 5 4 3 4 8 13 14 14 20 22 18 17 20 48 77 100 100 100 100 100 100 99 95 98 98 95 93 99 100 100 100 99 90 88
12 12 12 12 13 11 8 7 4 3 4 4 4 2 2 2 2 3 11 15 16 16 20 22 32 28 45 85 100 100 100 100 100 100 97 100 100 100 97 91 86 89 85 85 79 76 90
12 13 12 12 14 10 8 6 4 3 4 4 2 2 2 2 2 2 6 16 20 20 22 29 36 26 51 59 78 98 100 100 100 97 100 100 100 100 98 96 100 100 98 91 83 80 68
13 13 12 13 13 10 7 5 4 3 4 2 2 2 2 2 2 3 4 14 18 21 23 43 39 38 50 49 61 81 95 100 98 100 100 93 99 100 100 100 100 99 96 95 87 83 84
16 14 13 13 13 9 7 5 4 4 4 2 2 2 2 3 3 3 4 9 18 22 28 56 39 48 47 52 66 53 65 100 100 100 100 99 100 99 96 100 100 100 100 100 99 94 82
18 16 14 13 12 9 6 5 3 4 3 2 2 2 2 2 3 3 3 6 14 23 30 62 45 76 56 57 59 50 54 71 100 100 100 100 99 95 100 95 99 100 99 99 92 88 90
16 16 15 13 12 8 6 4 3 5 2 2 2 2 2 2 3 3 3 4 7 22 35 57 47 64 66 78 69 57 49 48 65 81 92 99 100 91 87 83 76 77 86 92 87 84 92
16 15 16 14 11 8 6 5 3 4 2 2 2 2 2 2 3 2 3 4 10 25 34 79 78 80 76 77 70 52 44 36 40 56 74 71 80 72 75 68 58 55 59 77 92 89 93
17 16 17 14 10 8 6 4 4 4 2 2 2 2 2 2 2 2 4 5 7 13 77 90 85 71 75 85 70 48 45 43 50 54 56 66 55 64 53 58 67 72 88 85 84 90 95
17 17 18 14 10 8 6 5 4 4 2 2 2 2 2 2 2 3 4 6 8 17 78 95 82 73 93 89 69 70 88 84 88 93 82 86 97 82 82 92 92 100 95 98 95 92 83
17 17 18 14 9 8 7 5 4 4 2 2 2 2 2 2 3 4 5 6 10 30 83 85 79 90 100 100 93 98 100 98 94 100 100 100 100 99 99 95 91 97 100 100 97 98 100
17 17 17 14 9 8 7 6 5 4 2 2 2 2 2 3 3 4 6 12 18 47 90 80 84 96 90 93 95 94 94 100 100 100 99 93 97 91 80 75 58 55 56 59 68 83 72
18 18 16 13 9 8 7 6 5 5 3 3 3 3 3 4 5 8 10 12 21 61 84 79 94 95 100 86 88 91 97 97 92 85 86 77 64 44 42 56 71 97 84 97 93 85 72
18 17 16 12 9 7 7 6 5 6 3 4 4 4 5 6 9 10 13 18 39 67 72 87 91 96 95 97 100 100 98 96 85 64 52 49 49 59 72 93 100 99 92 79 77 74 99
19 16 15 12 10 8 7 7 6 7 4 5 5 5 6 8 10 10 17 34 45 66 84 88 91 99 100 100 100 98 99 95 74 63 67 69 72 79 91 95 88 74 82 73 66 74 90
18 16 14 12 11 9 7 7 7 8 5 6 6 8 8 10 11 15 22 42 57 86 95 88 94 100 100 100 100 100 100 96 85 76 70 70 75 88 94 70 84 75 80 93 100 93 84
17 16 13 12 12 10 8 7 8 10 8 6 9 9 10 12 14 17 28 42 67 87 90 95 98 100 100 100 100 100 100 99 86 78 71 84 91 90 73 82 85 88 97 94 99 97 98
17 14 13 13 12 11 10 8 8 10 13 7 10 10 12 14 16 21 37 61 89 92 98 96 98 100 100 100 99 97 100 96 90 80 75 89 96 73 74 75 100 86 80 82 100 90 95
15 14 13 14 12 11 11 10 8 10 14 12 8 13 12 13 16 21 39 62 87 93 100 100 100 100 100 98 100 100 99 86 81 79 80 89 95 61 88 98 90 76 86 100 95 84 100
14 14 13 14 13 11 12 12 10 10 12 23 9 11 15 13 14 17 34 60 84 84 81 97 100 100 100 100 95 93 94 85 78 80 85 84 78 87 90 92 68 78 89 100 100 74 85
14 13 14 14 14 12 13 12 10 12 12 21 17 10 16 15 14 15 20 58 97 87 88 84 98 99 100 97 90 98 95 83 79 84 84 75 92 85 100 82 79 64 96 100 100 85 100
14 13 14 14 14 12 14 14 11 12 12 13 26 10 11 18 15 16 17 25 59 88 88 97 99 100 100 93 95 98 94 86 86 89 82 83 77 88 98 82 87 70 98 99 100 100 100
14 13 15 14 14 12 13 14 12 13 12 13 22 15 9 12 17 14 16 17 22 46 77 88 100 97 96 93 100 99 91 97 94 93 71 71 74 85 84 77 76 65 75 89 90 91 91
13 12 15 15 14 14 13 13 12 14 12 13 19 22 10 9 16 16 15 18 22 28 66 87 96 100 88 91 98 98 97 100 94 87 77 80 87 66 66 80 79 89 100 100 70 73 84
Wind_Speed
102 104 106 105 107 103 96 88 83 80 70 61 53 52 47 44 51 55 62 70 76 80 83 81 83 82 87 90 90 93 94 89 85 81 78 77 74 73 72 72 72 69 68 71 72 71 72
104 107 109 109 110 109 100 91 85 83 79 72 62 56 52 50 47 55 59 65 73 78 82 84 85 84 82 85 87 92 93 92 91 86 84 78 79 77 77 75 74 72 71 71 70 73 77
108 110 111 112 113 114 106 93 85 82 72 74 74 62 53 51 52 50 58 60 66 73 77 81 86 87 81 85 85 92 90 90 92 93 90 86 83 81 77 76 73 72 73 74 72 75 75
110 111 113 115 117 118 112 99 90 83 78 71 66 69 68 56 55 53 54 59 60 66 72 77 81 84 82 83 85 87 87 89 89 89 91 92 88 86 83 79 78 81 78 80 79 78 76
111 113 116 118 120 120 115 103 94 88 83 74 64 63 68 71 55 57 54 59 58 63 69 72 76 79 82 83 82 84 85 86 85 88 89 85 86 85 86 86 83 81 81 81 81 80 79
112 116 119 121 123 123 117 106 99 93 86 75 65 59 55 59 55 53 56 57 61 62 65 68 70 72 78 79 81 81 82 83 88 87 86 84 85 86 85 85 86 90 87 86 85 82 83
116 120 122 123 126 125 118 110 101 95 86 77 66 58 50 46 46 45 54 59 60 62 62 54 60 70 76 80 84 82 80 80 85 84 84 82 82 82 90 88 86 84 84 84 85 85 83
118 123 125 126 129 126 118 109 103 97 88 78 67 56 46 37 37 38 47 59 62 60 56 51 61 59 71 80 79 85 82 82 80 84 77 75 78 89 86 84 86 87 86 86 85 86 82
120 124 126 128 131 127 118 111 104 98 89 77 65 51 41 33 27 32 41 60 59 60 53 54 56 58 67 70 73 82 86 81 80 78 79 79 79 80 80 83 88 89 88 89 87 86 86
122 125 128 129 132 126 118 111 106 97 87 75 60 49 39 30 22 28 41 50 60 57 57 55 53 49 53 57 68 74 78 87 82 78 78 77 74 80 80 81 80 83 87 87 85 84 83
123 125 129 130 132 125 117 112 106 97 84 71 58 49 37 27 21 25 36 49 55 59 60 57 50 49 47 43 49 59 68 78 84 85 79 78 76 74 76 82 81 80 80 85 87 85 83
124 126 129 130 131 122 115 111 104 95 82 67 56 46 34 23 17 21 33 41 45 58 60 53 42 43 40 38 39 46 55 65 74 79 77 77 74 74 75 75 77 79 84 84 83 84 81
125 126 129 131 129 120 114 110 103 91 76 63 53 40 29 19 10 16 26 34 45 58 48 49 44 40 40 39 38 39 44 50 56 63 64 67 69 67 66 64 66 68 73 78 80 79 80
123 125 129 130 127 117 113 108 101 89 73 60 47 36 25 11 5 14 27 34 36 42 54 48 44 38 37 36 33 35 38 39 41 43 46 50 50 50 53 53 53 56 60 67 68 73 78
123 124 128 129 123 114 110 107 100 85 68 56 44 32 19 7 3 11 21 29 34 38 53 51 42 37 33 29 33 34 33 33 32 33 33 34 37 40 43 45 48 53 58 62 64 69 70
120 123 126 126 119 111 107 104 96 80 65 52 40 27 17 9 6 16 19 20 32 47 59 49 42 37 31 32 34 32 29 30 29 27 27 31 33 33 37 40 44 46 54 56 59 61 65
117 122 122 122 114 106 103 100 92 75 60 49 38 24 16 11 8 10 16 33 44 53 56 47 41 34 30 36 34 31 28 26 27 29 31 31 33 38 42 42 42 40 40 38 36 39 42
116 119 119 117 110 102 98 94 86 71 58 47 38 23 17 11 13 15 20 34 46 53 50 44 37 29 29 32 29 27 26 27 28 28 29 31 34 31 21 20 16 17 20 25 33 40 44
114 116 115 110 105 99 92 90 82 69 56 47 38 26 20 14 14 21 30 37 48 49 43 38 31 28 32 31 27 27 25 21 20 20 22 20 19 16 13 9 13 17 23 26 26 30 26
111 111 110 104 100 97 90 85 77 66 54 45 36 27 21 11 11 18 35 40 41 41 39 30 26 30 31 29 26 24 20 19 18 17 16 15 11 9 9 10 14 14 14 16 15 14 16
108 107 103 98 96 94 89 81 73 62 53 41 32 26 19 8 8 19 34 40 40 35 32 27 26 31 31 29 26 24 19 18 18 16 13 10 9 8 11 9 7 8 3 6 13 13 16
104 102 96 93 91 90 86 79 66 59 53 43 34 22 14 5 5 16 29 33 36 34 30 26 26 30 32 31 28 26 21 18 17 14 10 8 8 11 10 12 15 5 4 2 16 12 18
98 96 90 89 87 85 83 77 66 55 48 42 33 24 12 2 6 14 28 37 36 34 29 26 25 29 32 30 28 25 22 20 17 13 10 11 10 10 11 16 12 8 6 7 16 12 24
92 89 84 84 82 81 78 76 67 55 47 42 33 24 13 5 10 18 30 39 41 38 34 29 27 29 32 32 29 26 24 21 17 12 13 10 13 10 15 20 16 11 5 12 15 18 25
86 83 79 80 78 77 73 70 65 56 45 41 35 26 18 11 11 19 32 39 41 41 39 36 32 30 30 31 30 27 25 20 15 15 11 15 14 12 20 17 13 12 6 8 13 13 19
81 76 75 75 75 73 71 67 60 54 46 39 35 25 18 15 15 20 30 46 46 44 41 39 36 32 30 29 28 26 23 20 19 12 13 15 12 13 17 19 11 17 13 10 9 12 19
76 71 70 71 71 69 66 65 57 51 46 39 34 28 17 16 18 21 30 39 52 51 48 43 39 35 32 29 26 24 23 23 19 10 14 14 11 12 11 13 11 17 13 8 5 6 14
72 67 66 67 67 66 62 61 56 49 46 41 36 31 23 15 21 21 24 30 40 51 53 48 45 40 36 30 27 27 26 22 18 12 17 13 13 15 17 15 12 15 11 9 7 10 17
69 64 62 64 62 62 60 58 54 49 44 40 38 34 28 19 18 23 24 29 38 44 56 53 48 45 41 34 30 29 27 22 19 14 18 14 15 13 12 5 6 9 11 13 14 17 17
Wind_Direction
355 354 356 355 354 353 349 346 343 338 333 323 313 303 292 275 261 252 246 240 234 233 234 231 231 231 232 230 228 229 230 228 228 227 228 228 230 233 235 236 238 240 243 245 248 251 251
354 354 354 354 353 352 348 346 344 338 331 323 314 304 292 283 266 254 247 241 237 232 232 231 228 230 230 230 229 230 230 229 230 229 229 229 229 229 232 233 237 239 241 244 245 248 249
352 354 352 352 352 351 346 344 341 337 328 320 315 306 292 279 272 258 249 242 237 233 230 228 228 227 228 227 231 230 229 230 231 232 231 231 230 230 231 233 235 237 238 241 244 248 252
351 352 352 352 351 350 346 343 339 337 331 322 311 302 295 282 272 263 249 241 237 232 231 228 227 225 226 226 228 230 229 230 231 232 233 234 235 236 237 239 238 238 241 244 245 248 251
349 351 351 351 351 349 345 341 338 337 333 326 314 297 289 287 275 261 251 241 233 231 228 229 227 225 224 224 226 230 230 230 232 233 234 234 237 237 238 240 241 242 242 244 247 250 252
348 350 350 350 350 348 345 340 340 337 334 329 318 305 293 282 278 259 250 240 232 229 226 226 225 224 223 222 224 227 229 229 231 233 234 236 238 238 239 241 242 241 243 247 250 252 255
348 349 349 350 350 347 345 341 339 337 335 330 322 313 303 287 273 259 245 235 232 228 226 223 223 222 222 220 222 224 224 225 229 232 234 236 238 240 238 240 242 244 244 246 248 251 252
347 347 349 349 349 346 344 341 341 338 337 332 326 318 312 300 277 256 237 236 227 228 223 217 220 218 222 221 220 222 224 227 231 232 230 232 235 238 240 241 243 242 244 247 249 251 253
346 347 348 349 348 346 344 343 341 340 338 333 329 324 319 308 279 248 230 228 227 224 220 213 217 215 220 221 223 224 221 225 228 229 231 235 235 237 239 242 243 244 246 248 250 252 253
345 346 347 348 347 346 344 343 343 341 338 334 332 329 322 308 275 242 222 223 224 220 216 214 214 214 219 223 225 226 223 223 228 232 235 237 239 239 240 241 241 244 245 248 250 252 253
344 345 345 347 346 346 345 344 344 342 339 337 337 331 323 304 271 233 221 215 219 216 214 211 211 213 216 217 223 227 228 225 226 231 236 238 239 240 242 241 240 242 245 247 249 250 254
341 344 344 346 345 346 345 344 346 344 340 341 339 334 326 304 270 223 215 217 214 216 213 208 209 214 217 221 225 223 224 226 226 228 231 236 238 238 239 243 243 244 244 246 249 251 253
340 342 343 345 345 346 346 345 347 346 343 343 342 339 332 318 270 219 212 209 208 212 207 203 206 212 216 222 228 223 221 222 224 226 228 232 235 238 240 243 246 246 247 247 249 251 253
339 341 342 343 345 345 346 345 347 346 345 346 348 348 341 329 247 201 196 201 204 204 196 201 206 212 217 222 226 218 215 215 217 220 223 228 232 234 237 240 244 245 246 248 250 253 255
338 340 340 342 344 345 346 346 347 348 347 350 356 359 347 346 143 185 188 192 196 188 188 201 206 212 216 224 215 204 201 201 205 211 216 223 230 233 238 242 244 247 249 253 256 257 257
338 339 339 340 344 345 346 346 347 349 349 353 3 7 11 30 114 158 181 180 167 174 188 199 205 208 210 209 195 192 194 198 203 207 212 219 225 234 239 241 245 248 252 254 258 260 263
338 338 339 340 342 345 346 346 346 351 352 357 10 9 33 71 127 155 158 155 166 172 183 195 203 209 208 198 188 190 194 198 203 210 218 225 231 238 245 250 255 251 253 256 258 263 268
337 336 337 339 341 345 347 347 347 353 355 0 15 16 31 69 105 118 153 168 167 169 181 191 198 200 199 194 188 191 200 205 212 219 229 236 241 243 225 209 217 244 257 271 275 277 280
336 335 337 338 340 344 348 348 348 354 359 1 19 16 32 64 106 141 153 161 162 169 179 189 194 192 188 183 185 195 197 201 210 217 216 210 199 187 188 212 245 263 272 277 281 283 292
334 333 336 337 339 342 348 349 348 353 1 4 18 16 28 50 126 157 154 157 162 168 178 184 187 182 180 179 186 192 198 200 193 185 178 177 181 196 221 246 264 263 253 245 275 287 312
332 333 335 336 339 341 345 351 348 353 1 7 11 14 20 43 149 161 162 161 164 170 175 181 181 180 180 180 187 190 186 185 185 184 190 196 205 228 241 223 216 214 8 348 330 302 317
331 332 334 336 338 340 342 350 350 353 1 5 6 13 13 47 149 163 163 166 170 171 177 180 180 182 184 186 193 195 192 194 198 205 208 218 229 240 214 178 188 174 209 5 3 333 356
330 330 333 335 336 339 341 346 349 352 359 3 4 1 5 21 172 170 170 171 176 180 185 184 181 186 188 193 197 199 203 208 211 215 222 220 233 211 182 176 168 180 193 36 8 22 25
329 330 332 334 335 338 341 342 346 350 355 359 1 356 341 277 198 182 181 183 183 185 186 186 186 188 193 197 201 203 209 213 216 218 206 227 202 171 175 171 174 177 121 25 358 5 15
328 329 331 332 333 336 338 339 342 346 352 355 356 352 334 295 241 203 190 193 195 192 192 187 189 190 193 198 203 206 212 216 210 198 212 195 177 167 179 189 193 192 222 262 338 11 21
326 327 329 330 331 333 335 335 339 341 345 349 349 348 330 291 252 228 201 193 199 200 195 195 189 190 191 198 199 203 207 200 196 191 190 186 188 183 195 209 220 220 227 266 303 330 4
324 326 328 328 328 330 333 331 335 336 338 342 342 337 326 286 256 235 221 206 205 204 200 196 194 193 194 196 196 196 194 192 200 199 189 193 172 180 189 198 214 207 238 256 282 307 339
321 324 326 326 326 327 330 328 330 332 332 334 332 331 322 292 264 240 232 229 217 212 205 200 196 198 200 195 191 193 192 196 206 207 180 171 173 167 169 169 175 206 221 257 283 307 334
317 321 325 322 324 324 328 325 326 327 327 329 326 325 315 297 260 251 232 222 224 221 209 204 201 201 200 197 193 196 195 204 214 219 193 189 189 182 161 158 213 221 253 276 292 301 325